Theta_e
353 352 352 348 346 346 350 352 354 358 355 352 352 352 350 351 350 349 351 353 347 349 350 347 343 341 341 340 343 340 339 338 337 337 337 338 338 339 341 344 345 345 345
355 354 350 347 348 348 353 353 359 357 355 354 351 352 350 349 347 352 352 349 347 349 346 337 334 333 334 336 337 335 332 333 332 332 332 333 333 335 337 338 340 342 343
356 356 350 350 353 358 358 359 357 356 352 351 350 349 348 348 349 348 347 348 347 346 340 338 337 336 336 336 334 331 329 328 328 328 328 328 328 328 330 333 336 338 338
355 356 358 357 358 359 357 354 351 348 348 347 346 346 348 348 345 345 340 335 327 328 331 337 336 336 331 331 331 329 328 327 327 325 325 327 327 326 326 327 330 333 335
355 360 358 359 358 356 353 350 347 347 345 346 345 343 345 346 341 338 336 330 328 325 324 333 334 335 333 329 329 329 328 327 326 325 323 326 325 325 325 326 326 327 329
358 361 356 354 353 349 347 347 348 348 347 344 341 338 339 342 330 332 332 326 325 324 326 327 326 324 333 329 328 329 328 326 325 323 323 324 323 323 323 325 325 325 325
358 355 356 352 350 348 347 346 345 345 343 334 336 331 336 339 324 330 328 324 324 324 324 326 323 323 323 329 326 325 325 324 323 323 322 321 321 321 323 323 324 324 324
353 350 349 349 347 347 341 338 337 334 335 330 324 324 317 321 319 327 324 323 324 324 324 322 324 322 320 319 322 324 323 323 322 321 320 319 320 321 321 321 322 322 323
347 345 343 343 345 337 332 332 331 328 325 325 323 319 312 311 317 320 321 325 322 323 323 323 323 321 320 318 318 318 320 319 320 320 318 318 319 319 320 320 321 321 322
341 340 338 336 334 329 330 328 328 329 324 319 322 325 322 321 312 310 318 320 317 318 324 321 319 320 320 318 320 320 319 319 319 318 318 318 318 318 320 320 320 321 321
333 331 332 331 329 329 329 328 325 325 322 321 318 319 320 321 320 314 309 312 315 316 318 318 321 320 319 316 315 317 321 320 317 316 315 316 317 317 317 317 318 318 319
330 331 329 329 330 328 327 326 326 325 324 323 324 321 319 315 314 313 310 311 311 312 316 318 318 318 317 315 317 321 321 320 318 316 314 315 315 317 317 318 317 317 319
326 328 327 328 326 327 327 327 326 325 324 323 323 322 322 319 318 316 313 310 309 313 314 318 317 317 317 316 315 321 320 320 317 316 315 314 314 315 315 316 317 317 316
325 328 327 327 326 326 327 327 325 324 327 323 324 324 322 320 319 318 314 311 308 310 313 314 316 317 317 316 318 321 316 318 317 315 315 314 314 314 314 314 315 314 315
325 325 325 324 324 325 326 325 325 325 326 326 323 322 321 320 322 320 318 318 312 307 308 312 311 318 318 317 318 316 315 318 317 315 314 314 314 313 313 314 314 314 314
323 323 323 323 323 324 325 327 324 326 324 324 322 322 321 322 320 321 319 319 316 312 307 312 314 318 317 316 318 316 314 317 315 315 315 314 313 312 313 314 313 314 314
324 321 322 322 322 323 324 325 325 324 324 323 323 322 321 322 319 318 317 318 316 315 310 313 316 317 315 315 315 315 315 312 312 315 316 314 312 311 312 313 312 312 312
323 322 322 322 322 322 324 323 322 322 321 320 321 321 318 318 315 314 313 313 314 314 313 310 313 313 312 315 313 312 312 313 312 315 316 314 313 311 311 311 310 311 310
322 322 322 321 321 321 322 323 322 321 321 321 321 320 318 315 311 310 309 309 312 313 314 312 310 312 311 312 310 311 310 310 312 317 315 313 314 312 313 312 310 310 308
322 322 322 321 322 321 318 322 322 322 322 321 321 320 317 311 309 307 305 308 310 311 312 310 308 307 309 310 310 308 307 310 310 314 314 312 313 314 312 311 311 311 307
322 322 321 319 316 312 307 308 315 322 321 320 319 315 314 313 310 307 304 304 306 308 310 308 306 307 307 307 307 309 307 309 310 312 309 309 310 310 311 310 310 309 307
322 321 320 316 312 307 301 302 306 318 320 319 316 313 313 308 304 304 306 307 307 305 308 308 308 306 307 309 310 308 309 308 305 312 308 307 309 307 309 310 308 306 305
321 320 318 316 311 306 299 299 301 311 320 318 316 311 308 306 300 299 301 306 312 308 308 308 308 306 309 311 311 308 309 309 308 310 307 304 308 306 308 310 307 305 305
317 316 316 314 309 301 297 296 298 309 320 318 314 310 306 304 298 297 299 309 310 313 311 310 310 311 313 313 311 310 311 310 310 309 307 302 307 304 307 309 306 305 304
315 315 315 316 309 302 296 295 299 310 318 314 303 302 302 301 295 295 300 305 306 308 309 307 305 303 301 300 302 307 308 306 305 306 308 303 305 304 305 306 307 305 304
316 315 315 315 308 303 294 295 297 307 312 312 304 300 297 297 294 294 297 301 301 302 301 305 308 311 308 311 308 313 310 306 304 303 308 303 304 303 300 305 306 307 306
Wind_Speed
4 3 2 3 4 3 2 3 5 6 8 8 11 12 11 9 7 4 8 20 19 5 13 13 16 16 15 16 16 20 21 23 23 24 23 23 23 22 23 23 19 18 15
2 1 1 3 2 3 5 4 4 4 5 5 6 7 8 8 8 4 8 9 7 13 12 14 16 16 15 17 18 20 22 23 23 24 23 23 23 22 22 22 22 22 19
2 3 2 1 2 4 2 3 4 5 4 5 5 5 6 7 6 8 7 5 6 11 13 14 19 19 16 17 16 19 20 19 22 25 25 24 24 25 25 24 22 21 21
6 3 2 2 5 3 3 4 4 4 4 3 4 7 5 5 5 6 9 7 7 4 6 17 18 14 14 17 15 18 19 18 22 25 26 25 24 24 24 24 23 22 21
4 3 1 4 2 3 3 4 5 3 4 4 5 4 5 1 4 5 10 8 8 5 4 11 12 12 14 19 15 19 22 22 24 26 27 26 25 25 25 24 24 24 23
3 1 5 4 5 4 5 4 3 4 3 3 7 6 5 5 5 6 5 7 6 7 5 5 5 7 13 19 18 22 20 24 28 30 27 25 25 25 25 24 23 23 23
6 3 2 5 3 4 6 6 4 5 3 5 3 5 3 6 8 4 5 6 6 5 6 5 4 3 4 14 17 18 22 26 28 26 25 26 25 26 25 24 23 23 23
7 7 6 5 5 4 7 6 6 4 3 5 3 3 4 4 8 5 5 5 6 4 5 5 6 6 4 4 10 18 24 28 28 30 27 27 25 25 25 24 23 23 21
9 9 7 5 5 7 6 5 6 6 3 4 5 3 4 4 6 4 7 5 7 5 4 4 5 6 6 5 9 12 23 25 27 30 28 26 24 25 25 24 23 24 22
8 8 8 7 8 6 5 5 5 3 5 4 3 4 4 3 3 5 5 5 8 8 6 5 5 5 6 5 12 15 22 23 23 26 25 26 27 26 26 26 26 24 24
8 8 7 7 7 4 5 5 6 6 5 4 3 4 6 3 5 3 4 7 5 5 6 5 5 5 7 8 8 12 21 22 19 21 22 24 24 25 25 25 26 26 25
6 7 8 7 6 5 6 5 6 7 5 6 5 5 4 3 4 4 4 6 7 7 6 4 6 5 5 7 14 21 23 20 18 17 18 21 23 25 26 27 26 25 25
6 6 7 6 5 5 4 4 5 5 7 6 7 5 3 3 3 3 4 5 5 5 4 3 6 4 6 4 8 19 22 22 19 15 16 19 22 24 26 26 24 24 24
6 6 6 5 6 5 5 5 4 5 5 6 7 5 3 4 4 4 4 4 6 6 7 7 8 4 4 5 13 21 12 18 18 16 14 17 19 23 24 24 22 22 22
7 6 7 6 6 5 5 6 4 6 5 5 5 6 5 5 4 4 3 3 5 9 9 8 8 6 6 7 12 10 12 21 20 20 18 15 14 17 20 21 21 20 22
8 7 7 6 6 6 6 5 5 6 5 4 3 5 5 4 7 4 6 4 4 4 6 8 9 6 7 8 12 10 13 18 20 20 22 15 11 13 17 19 20 21 24
7 7 7 7 7 6 5 4 4 6 6 5 5 6 6 7 6 7 7 7 7 7 8 9 6 6 9 11 13 12 12 12 12 22 20 21 11 11 16 16 19 20 24
6 6 7 7 8 6 5 6 7 6 6 6 6 6 8 7 9 8 7 8 7 7 8 11 7 7 11 10 14 15 13 12 13 17 17 22 14 9 12 14 19 18 23
7 7 7 7 8 7 5 6 6 6 6 5 5 5 5 7 7 6 7 7 6 6 6 7 9 9 10 10 13 12 13 13 11 21 18 21 17 12 14 16 20 22 23
8 7 7 7 7 9 11 7 6 5 5 5 5 6 8 8 7 7 7 6 6 7 6 7 8 8 8 10 9 11 12 10 12 9 16 16 14 12 16 20 24 24 25
7 8 8 10 11 10 8 9 9 6 6 6 7 9 7 9 14 11 6 8 8 6 5 6 8 6 7 9 10 9 10 10 12 8 13 11 10 9 7 14 20 26 25
7 8 9 11 9 7 9 11 9 6 6 5 6 8 4 13 13 16 18 17 11 6 4 3 4 7 9 9 9 10 9 7 9 6 13 11 10 10 9 7 21 22 24
8 8 10 11 9 7 10 11 11 6 4 4 7 6 7 8 11 11 15 19 7 2 7 4 6 7 9 8 8 11 11 11 10 7 12 8 10 10 8 8 19 24 24
7 7 7 10 8 7 9 9 11 5 4 3 8 7 7 7 8 10 10 10 11 3 5 5 5 7 8 7 6 5 10 10 8 5 11 5 9 11 8 8 16 24 22
7 6 6 9 9 6 8 9 8 6 4 8 10 8 6 6 8 10 9 10 10 8 10 12 11 13 11 11 8 4 8 9 8 5 9 5 8 10 6 7 9 20 20
7 7 7 8 11 7 9 12 11 7 6 4 7 6 11 6 7 8 6 8 9 10 12 13 11 4 5 5 4 4 4 6 7 3 6 6 6 7 5 4 9 11 11
Wind_Direction
176 191 341 346 359 355 317 12 344 2 9 356 13 13 353 336 316 325 78 82 70 75 60 44 30 21 12 12 9 20 13 10 8 4 0 358 356 352 347 343 318 287 277
129 235 137 238 254 23 20 340 9 6 349 0 13 343 333 325 313 329 96 102 118 88 74 49 25 12 8 9 7 4 1 1 360 356 354 352 349 348 345 341 338 335 305
133 325 260 25 75 37 265 324 352 21 358 354 10 306 293 289 316 62 87 101 120 108 84 47 20 14 22 14 8 7 1 1 359 354 348 347 346 342 338 334 333 332 329
156 231 212 192 65 316 348 27 21 357 342 349 327 294 307 323 56 45 77 67 61 55 25 37 11 37 23 7 11 1 356 357 358 351 346 340 342 338 335 331 327 327 330
178 276 343 78 63 310 60 29 360 321 306 301 308 324 301 356 38 32 95 71 56 30 45 31 357 14 21 7 9 352 0 1 348 342 342 341 341 337 332 330 328 324 323
165 295 23 46 358 23 34 20 324 326 326 348 302 327 293 85 49 29 54 67 44 36 55 36 20 5 350 8 10 17 10 358 347 343 341 340 338 335 331 328 327 326 319
44 86 114 87 30 40 42 10 342 302 35 7 330 305 43 75 39 32 37 72 37 15 51 23 52 350 9 2 10 357 11 357 348 344 343 339 334 332 331 330 327 324 322
44 66 31 42 48 58 55 25 19 332 59 25 342 315 358 328 27 25 11 42 18 7 52 4 51 17 25 349 358 18 4 358 353 346 342 338 335 334 332 329 327 323 323
57 65 63 46 57 55 67 31 359 35 348 27 46 57 6 23 322 6 14 22 16 351 53 14 38 21 15 18 1 24 1 358 348 350 344 338 333 337 331 330 327 321 323
77 68 65 64 64 54 43 35 19 9 11 25 24 52 50 100 9 336 346 16 15 346 37 47 15 7 25 16 359 6 355 345 348 350 348 342 339 337 335 333 328 328 322
84 81 68 67 58 84 67 72 34 20 21 33 28 10 24 32 27 356 339 348 3 354 356 27 9 31 20 10 354 348 341 330 339 338 347 345 341 340 338 333 329 325 321
88 87 90 78 56 62 68 51 71 38 65 32 17 49 46 33 352 17 342 0 350 339 11 17 7 29 13 5 351 336 332 334 334 326 329 334 334 332 334 331 327 326 325
101 92 71 61 82 87 86 82 92 79 60 51 24 15 38 34 19 18 2 4 349 323 311 4 7 27 13 4 341 337 340 338 335 343 313 323 328 332 336 336 332 331 331
110 104 98 91 79 86 62 84 63 76 57 67 43 1 7 26 33 38 9 337 329 328 356 346 360 17 354 345 338 341 333 351 348 349 326 315 321 340 341 340 338 340 336
117 101 96 89 83 70 93 78 65 57 52 73 62 21 29 12 353 24 337 323 352 344 344 350 340 343 353 350 328 349 343 352 342 339 319 312 327 340 342 343 342 340 337
104 107 102 98 86 66 30 89 87 84 68 44 63 62 38 7 12 20 354 350 351 1 330 325 327 345 353 343 335 356 346 349 331 327 313 312 324 334 337 343 348 349 344
115 113 111 105 100 94 93 106 102 94 81 69 35 56 38 36 9 18 357 356 351 351 332 325 326 339 352 349 348 350 349 343 331 324 330 331 311 336 331 342 343 342 343
104 101 98 100 97 94 88 74 63 66 60 49 38 44 49 33 23 16 356 350 343 352 336 327 330 357 359 3 354 345 344 343 332 327 335 337 327 332 325 338 346 345 343
95 94 95 97 107 110 92 74 74 77 74 59 33 28 70 51 26 12 348 341 338 333 327 341 346 8 347 347 340 340 343 331 333 328 347 342 339 350 355 0 356 356 348
104 100 98 102 92 65 37 39 83 66 64 75 44 20 43 55 34 13 349 330 335 322 351 4 349 341 335 336 332 339 339 341 328 337 347 344 356 23 17 12 6 3 358
110 111 99 79 65 57 36 16 352 64 51 49 51 26 62 63 36 14 345 326 315 317 331 358 347 334 335 342 339 331 321 329 335 6 351 339 358 359 4 12 7 4 357
106 106 97 86 78 70 26 26 8 343 60 51 54 39 22 47 17 354 343 324 287 265 292 320 320 327 323 324 331 332 330 329 348 5 349 339 358 353 350 9 5 3 1
81 87 91 95 85 68 29 16 359 325 83 68 73 49 22 35 20 351 338 317 356 77 241 290 306 306 313 310 326 329 335 340 342 351 347 340 354 350 346 347 8 2 1
97 98 105 107 100 62 36 9 345 301 321 97 88 61 50 41 12 355 330 346 342 321 330 311 260 292 290 306 308 304 320 335 349 23 0 330 346 344 336 354 10 1 359
119 128 115 105 90 61 23 12 354 308 56 80 79 64 69 53 351 352 347 355 343 332 326 313 311 305 290 287 282 316 358 353 350 356 11 326 347 339 333 344 359 359 359
134 121 106 93 102 79 29 19 9 18 26 90 119 130 72 61 349 340 348 327 338 324 321 317 317 341 335 345 338 44 8 8 352 320 0 339 342 349 330 334 354 2 359